Hovedside
METAR-TAF:

METAR-TAF

Lufthavner :

Arvidsjaur lufthavn

Arvidsjaur, Sverige

breddegrad: 65-35-25N, lengdegrad: 019-16-55E, høyde over havet: 379 m

Gjeldene værobservasjon

Denne rapporten ble laget for 17 minutter siden, klokken 06:20 UTC
Flau vind
Temperatur -6°C
Luftfuktighet 93%
Trykk 1016 hPa
Sikt: 0550 m
lett snø

METAR: ESNX 170620Z AUTO 00000KT 0550 R30/1800D -SN OVC001/// M06/M07 Q1016

Tid: 07:37 (06:37 UTC)


TAF: fraværende

Værobservasjoner og værvarsel for over 4000 flyplasser (METAR- og TAF-rapporter).

Tilgjengelige stasjoner er representert av de røde og gule prikkene på kartet.

Hold musepekeren over prikken for å se navnet på stasjonen.

Klikk så for å se værobservasjoner og -varsler.

For å forandre kartet kan du klikke på den grønne knappen med svart kryss for å zoome inn, på den grønne knappen med strek for å zoome ut, eller på de grønne pilene for å se tilstøtende kart.


METAR-TAF: